Lid_Strength_Index
2 2 2 2 3 3 3 4 4 4 4 4 4 5 5 5 5 5 5 4 4 4 4 4 5 9 10 13 14 11 8 9 10 11 12 12 12 12 14 15 14 14 16 15 15 16 16
2 2 2 3 3 3 3 4 4 4 4 4 5 5 5 5 5 5 5 5 4 4 4 3 5 8 11 14 11 11 12 11 12 11 12 12 13 12 14 16 15 16 16 16 16 16 16
2 2 2 2 3 3 3 3 4 4 4 5 5 5 5 5 5 5 5 4 4 4 4 5 7 11 11 14 11 11 12 12 12 12 13 13 13 13 14 16 16 16 16 17 17 16 17
2 2 2 2 2 3 3 3 4 4 4 4 5 5 5 5 5 5 5 4 4 4 5 6 9 10 14 12 10 12 11 12 11 12 13 13 13 14 15 15 16 16 15 15 17 17 17
3 3 3 3 3 3 3 4 4 4 4 4 5 5 5 5 5 5 5 4 5 6 7 9 10 10 13 11 13 12 12 14 13 12 12 13 13 14 14 14 13 15 16 17 16 18 18
3 3 3 3 3 3 3 4 4 4 4 4 5 5 5 5 5 6 6 7 7 8 10 11 11 10 12 14 13 12 12 13 14 13 12 12 13 14 15 13 16 18 18 18 18 17 18
3 3 3 3 4 4 4 4 4 4 4 4 4 4 5 5 5 7 8 8 9 9 12 14 14 14 14 12 12 12 13 13 12 13 15 15 15 18 19 18 19 19 20 20 18 19 20
4 4 4 4 4 4 4 4 4 4 4 4 4 4 5 5 6 8 9 11 13 11 13 13 14 14 13 13 13 12 12 13 13 16 15 14 18 19 19 19 20 20 20 18 18 20 20
4 4 4 4 4 4 4 4 4 4 4 4 4 5 6 6 8 8 10 12 10 11 10 13 13 13 13 12 15 14 14 15 16 16 16 15 18 19 19 20 20 19 19 20 21 20 20
5 5 5 5 4 5 4 4 4 4 5 5 4 5 6 7 7 10 11 10 10 9 9 11 12 13 12 13 14 14 14 15 15 17 18 18 19 19 19 20 20 19 20 21 22 21 19
4 4 5 5 4 4 4 4 4 4 4 5 5 6 7 7 10 11 11 10 9 8 16 11 12 11 13 14 15 14 14 14 16 17 16 17 19 19 19 20 20 19 21 22 22 22 23
4 4 4 4 4 4 4 3 3 3 4 4 5 6 8 9 9 10 9 9 8 10 17 12 13 15 14 15 15 15 15 15 16 17 17 19 18 19 19 20 20 20 22 22 22 22 19
4 4 4 4 4 3 3 3 3 3 4 4 6 7 8 10 10 9 9 8 10 14 11 13 14 15 16 16 16 17 18 19 17 14 15 17 19 20 20 20 20 21 19 18 19 19 17
4 4 3 3 3 3 3 3 3 3 4 5 7 9 10 10 10 9 8 7 14 13 13 15 16 15 15 17 17 17 17 16 20 19 16 18 15 20 20 21 22 22 21 16 20 18 18
3 3 3 3 3 3 3 3 3 3 4 5 8 8 8 9 9 8 7 12 11 13 15 15 14 14 14 16 17 16 18 18 21 21 16 17 16 21 21 21 22 21 18 23 22 27 24
3 3 3 3 3 3 3 3 3 4 4 6 7 8 8 10 9 7 7 12 13 15 16 16 14 15 14 15 14 15 17 19 21 22 22 21 19 21 22 21 22 22 22 20 20 20 20
2 2 2 2 2 3 3 3 3 4 5 7 6 5 7 9 9 6 11 13 15 16 16 16 15 15 17 17 17 17 17 19 20 21 21 21 21 18 22 21 20 23 22 24 22 22 20
2 2 2 2 2 2 3 3 3 4 5 7 6 7 7 8 7 12 12 15 15 16 16 16 16 17 17 18 17 17 17 18 19 20 21 22 21 21 17 25 25 24 21 19 19 21 24
1 1 1 2 2 2 3 3 3 4 6 7 7 8 6 8 10 10 15 15 15 16 16 17 17 17 18 17 16 17 18 19 19 20 21 21 19 19 17 24 24 23 24 25 24 22 23
1 1 1 2 2 2 2 3 3 3 6 7 7 8 7 10 12 11 13 14 15 16 16 17 17 17 18 18 19 18 18 20 19 20 19 19 21 19 17 15 19 22 25 26 22 21 20
1 1 1 1 2 2 2 3 3 4 7 8 10 12 13 10 11 13 14 15 14 14 16 16 17 17 16 17 19 20 19 20 20 19 19 21 23 21 20 19 19 20 20 25 26 21 21
1 1 1 1 1 1 2 2 3 4 7 9 8 8 13 14 15 13 14 13 13 14 15 17 17 15 17 17 15 15 17 19 17 20 20 21 21 25 24 20 21 23 21 20 24 21 21
0 1 1 1 1 1 2 2 3 5 7 9 11 11 9 14 14 13 12 13 13 14 15 15 17 17 19 17 16 16 17 18 18 19 20 22 22 22 20 21 20 19 21 21 21 22 20
2 2 2 2 2 2 2 2 2 4 6 9 10 10 14 12 15 14 13 13 14 15 14 17 18 17 17 18 18 19 19 20 19 20 18 21 22 21 21 19 18 14 17 17 18 18 20
3 3 3 3 3 3 3 2 2 3 6 9 11 10 13 14 14 15 14 14 15 16 16 17 18 18 17 18 18 18 19 21 22 21 20 19 19 20 21 21 17 13 18 17 18 16 14
4 4 4 4 4 4 4 4 3 3 5 10 11 10 12 15 15 13 14 15 16 17 18 19 18 18 18 18 18 18 17 16 21 23 21 20 19 21 23 22 19 11 17 18 19 15 14
6 6 5 5 5 5 4 4 4 3 4 9 11 11 13 16 14 14 15 15 15 16 17 20 19 20 18 18 19 17 17 18 18 20 23 22 21 23 22 22 19 13 15 18 16 13 12
7 7 7 7 7 6 6 5 5 5 5 8 11 11 12 15 14 15 14 15 17 15 16 17 17 19 19 18 17 16 19 18 19 18 20 18 18 23 22 23 21 15 17 14 10 11 11
8 8 8 8 8 8 8 7 7 6 5 7 11 11 10 13 13 14 14 13 12 11 14 17 14 15 14 16 16 18 19 21 17 18 19 18 14 13 16 13 10 11 13 11 11 11 11